OPS 4682 DEB, 38448

Orbit data source: Space-Track

OPS 4682 DEB, 38448 is space debris in LEO originally from a launch on Sat, 03 Apr 1965 UTC launched from the Air Force Western Test Range (AFWTR). Debris objects in space refer to the collection of defunct objects orbiting the Earth. Examples of debris include non-operational satellites, rocket bodies, and fragments generated from explosions, collisions, or faulty payload assembly.

Loading next visibility...
Identifier
38448, 1965-027FD
Orbit
LEO
Country
Flag of USUS
Related business
Manufacturer
Unknown
Mission
Spacecraft
Bus & Motor
Unknown
Mass
Unknown
Launch date (UTC)
1965-04-03 (61 years ago)
Launch vehicle
Unknown
Launch site
Air Force Western Test Range (AFWTR)
Object type
Payload
Rocket body
Debris
Shape & HBR
Unknown shape, 0.1 m
Radar Cross Section
Small (<0.1 m²)

Expand to show TLE details & history
Last TLE update: 17 hours ago

TLE from 17 hours ago
0 OPS 4682 DEB
1 38448U 65027FD  26121.11682258  .00000764  00000-0  24970-2 0  9993
2 38448  90.2418   5.6621 0031380   9.4153 350.7551 13.00310863548244
Epoch: 2026-05-01T02:48Z
TLE epoch observation values (Epoch: 2026-05-01T02:48:13.470Z)
Latitude
-0.00004°
Longitude
104.55229°
Altitude
1,240.091 km
Speed
7.246 km/s
True Right ascension
00h 22m 38s
True Declination
0° 00' 00"
Sunlit
Object was in daylight at epoch
Visualization orbit readout
Latitude
Unknown
Longitude
Unknown
Altitude
Unknown
Speed
Unknown
Apparent Right ascension
Unknown
Apparent Declination
Unknown
Sunlit
N/A
Visualization observer readout
Local Sidereal Time
03:52:28
Azimuth
Unknown
Elevation
Unknown
Doppler factor
Unknown
Orbital elements
Apogee altitude
1,281.958 km
Perigee altitude
1,234.033 km
Semi-major axis
7,636.132 km
Eccentricity
0.00314
Inclination
90.2418°
RAAN
5.6621°
Arg. of periapsis
9.4153°
True anomaly
350.69711°
Mean anomaly
350.7551°
Eccentric anomaly
350.72613°
Mean motion
3.25262 °/min
Orbital period
110.68 mins
BSTAR
0.002497
Loading maneuver chart data...
Computing Atmospheric mass density...
Loading historical data...
Loading historical data...
Loading historical data...
Loading historical data...
Loading historical data...
Loading historical data...
Loading historical data...

Documentation

Showing up to 5 results
|